Home   Weather   Emmerich am Rhein   Past weeks

Flag for Germany Past Weather in Emmerich am Rhein, North Rhine-Westphalia, Germany — Yesterday and Last 2 Weeks

Now
34 °F

Clear.


Feels Like: 30 °F
Forecast: 31 / 42 °F
Wind: 5 mph from Southeast

Location: Niederrhein

Current Time: Dec 6, 2016 at 11:00:42 pm

Latest Report: Dec 6, 2016 at 10:20 pm


Visibility: 6 mi

Pressure: 30.45 "Hg

Humidity: 100%

Dew Point: 34 °F

Location of Emmerich am RheinLocation

Past Weather in Emmerich am Rhein — Graph

°F

Emmerich am Rhein Temperature Yesterday

Maximum temperature yesterday: 39 °F (at 1:50 pm)
Minimum temperature yesterday: 25 °F (at 5:50 am)
Average temperature yesterday: 31 °F

High & Low Weather Summary for the Past Weeks

 TemperatureHumidityPressure
High55 °F (Nov 22, 12:20 pm)100% (Nov 22, 11:50 pm)30.60 "Hg (Nov 22, 11:50 pm)
Low21 °F (Nov 30, 4:50 am)50% (Nov 25, 2:20 pm)29.47 "Hg (Nov 21, 9:20 pm)
Average38 °F90%30.25 "Hg
* Reported Nov 21 9:20 pm — Dec 6 9:50 pm, Emmerich am Rhein, Weather by CustomWeather, © 2016

Note: Actual official high and low records may vary slightly from our data, if they occured in-between our weather recording intervals... More about our weather records

Advertising

Emmerich am Rhein Weather History for the Previous 24 Hours

Scroll right to see more
 ConditionsComfort  
Time TempWeatherWind HumidityBarometerVisibility
9:50 pm
Tue, Dec 6
34 °FClear.8 mph100%30.45 "Hg10 mi
9:20 pm34 °FClear.8 mph93%30.45 "Hg10 mi
8:50 pm36 °FClear.8 mph93%30.45 "Hg10 mi
8:20 pm34 °FClear.7 mph100%30.45 "Hg10 mi
7:50 pm34 °FClear.8 mph100%30.45 "Hg6 mi
6:50 pm34 °FClear.6 mph93%30.45 "Hg5 mi
6:20 pm36 °FClear.5 mph93%30.45 "Hg5 mi
5:50 pm36 °FClear.6 mph93%30.45 "Hg4 mi
5:20 pm34 °FClear.5 mph100%30.45 "Hg5 mi
4:50 pm34 °FClear.6 mph100%30.45 "Hg6 mi
4:20 pm34 °FClear.5 mph100%30.42 "Hg4 mi
3:50 pm37 °FSunny.2 mph93%30.45 "Hg10 mi
3:20 pm41 °FClear.2 mph81%30.42 "Hg5 mi
2:50 pm41 °FSunny.2 mph81%30.45 "Hg10 mi
2:20 pm41 °FSunny.6 mph81%30.42 "Hg10 mi
1:50 pm41 °FPassing clouds.5 mph81%30.42 "HgN/A
1:20 pm39 °FPassing clouds.5 mph87%30.45 "HgN/A
12:50 pm37 °FSunny.6 mph87%30.45 "Hg10 mi
12:20 pm37 °FSunny.5 mph87%30.45 "Hg10 mi
11:50 am36 °FSunny.5 mph100%30.45 "Hg10 mi
11:20 am34 °FPassing clouds.5 mph100%30.45 "HgN/A
10:50 am32 °FClear.6 mph100%30.42 "Hg5 mi
9:50 am27 °FSunny.3 mph100%30.42 "Hg10 mi
9:20 am28 °FIce fog.3 mph100%30.42 "Hg2 mi
8:50 am25 °FIce fog.2 mph100%30.42 "Hg2 mi
8:20 am27 °FIce fog.2 mph100%30.42 "Hg2 mi
7:50 am27 °FClear.3 mph100%30.39 "Hg4 mi
7:20 am27 °FClear.5 mph100%30.39 "Hg4 mi
6:50 am27 °FClear.5 mph100%30.39 "Hg4 mi
6:20 am27 °FClear.5 mph100%30.39 "Hg4 mi
5:50 am27 °FClear.3 mph100%30.36 "Hg4 mi
5:20 am27 °FClear.3 mph100%30.39 "Hg4 mi
4:50 am25 °FIce fog.3 mph100%30.39 "Hg3 mi
11:50 pm
Mon, Dec 5
27 °FClear.3 mph100%30.36 "Hg4 mi
11:20 pm27 °FIce fog.3 mph100%30.36 "Hg3 mi
Weather by CustomWeather, © 2016

See weather overviewHow to use our weather pages